| time (UTC) | temp F | wind direction | speed MPH | gust MPH | rain 1hr in | rain 24hr in | rain mn in | humidity % | barometer mb |
| 20260506192545 | 55 | 197 | 4.0 | 17.0 | 0.04 | 0.04 | 0.04 | 90 | 1012.5 |
| 20260506192045 | 55 | 218 | 6.0 | 12.0 | 0.04 | 0.04 | 0.04 | 90 | 1012.5 |
| 20260506191544 | 56 | 339 | 3.0 | 12.0 | 0.04 | 0.04 | 0.04 | 90 | 1012.5 |
| 20260506191044 | 56 | 188 | 3.0 | 15.0 | 0.03 | 0.03 | 0.03 | 90 | 1012.5 |
| 20260506190544 | 56 | 190 | 7.0 | 16.0 | 0.03 | 0.03 | 0.03 | 90 | 1012.6 |
| 20260506190042 | 56 | 218 | 6.0 | 11.0 | 0.02 | 0.02 | 0.02 | 89 | 1012.7 |
| 20260506185543 | 56 | 286 | 3.0 | 10.0 | 0.01 | 0.01 | 0.01 | 89 | 1012.8 |
| 20260506185042 | 56 | 184 | 3.0 | 20.0 | 0.00 | 0.00 | 0.00 | 88 | 1012.8 |
| 20260506184540 | 56 | 214 | 4.0 | 20.0 | 0.00 | 0.00 | 0.00 | 87 | 1012.8 |
| 20260506184039 | 57 | 168 | 6.0 | 12.0 | 0.00 | 0.00 | 0.00 | 86 | 1013.0 |
| 20260506183539 | 57 | 206 | 5.0 | 12.0 | 0.00 | 0.00 | 0.00 | 85 | 1013.1 |
| 20260506183039 | 58 | 182 | 3.0 | 16.0 | 0.00 | 0.00 | 0.00 | 84 | 1013.1 |
| 20260506182539 | 58 | 288 | 4.0 | 16.0 | 0.00 | 0.00 | 0.00 | 83 | 1013.1 |
| 20260506182038 | 58 | 111 | 4.0 | 16.0 | 0.00 | 0.00 | 0.00 | 83 | 1013.2 |
| 20260506181537 | 58 | 177 | 6.0 | 14.0 | 0.00 | 0.00 | 0.00 | 83 | 1013.4 |
| 20260506181041 | 58 | 269 | 5.0 | 16.0 | 0.00 | 0.00 | 0.00 | 83 | 1013.3 |
| 20260506180538 | 58 | 292 | 6.0 | 20.0 | 0.00 | 0.00 | 0.00 | 83 | 1013.3 |
| 20260506180042 | 58 | 225 | 6.0 | 19.0 | 0.00 | 0.00 | 0.00 | 82 | 1013.3 |
| 20260506175535 | 58 | 121 | 6.0 | 17.0 | 0.00 | 0.00 | 0.00 | 82 | 1013.4 |
| 20260506175035 | 58 | 208 | 6.0 | 15.0 | 0.00 | 0.00 | 0.00 | 82 | 1013.8 |
| 20260506174533 | 58 | 342 | 5.0 | 14.0 | 0.00 | 0.00 | 0.00 | 82 | 1014.0 |
| 20260506174034 | 58 | 272 | 6.0 | 12.0 | 0.00 | 0.00 | 0.00 | 81 | 1013.6 |
| 20260506173533 | 59 | 261 | 4.0 | 15.0 | 0.00 | 0.00 | 0.00 | 82 | 1013.8 |
| 20260506173041 | 58 | 200 | 6.0 | 16.0 | 0.00 | 0.00 | 0.00 | 82 | 1013.8 |
| 20260506172532 | 58 | 235 | 5.0 | 16.0 | 0.00 | 0.00 | 0.00 | 82 | 1014.0 |
| 20260506172032 | 58 | 229 | 3.0 | 17.0 | 0.00 | 0.00 | 0.00 | 82 | 1014.1 |
| 20260506171534 | 58 | 200 | 5.0 | 17.0 | 0.00 | 0.00 | 0.00 | 82 | 1014.2 |
| 20260506171034 | 58 | 160 | 7.0 | 18.0 | 0.00 | 0.00 | 0.00 | 81 | 1014.1 |
| 20260506170531 | 58 | 216 | 6.0 | 19.0 | 0.00 | 0.00 | 0.00 | 81 | 1014.1 |
| 20260506170033 | 59 | 227 | 6.0 | 19.0 | 0.00 | 0.00 | 0.00 | 81 | 1014.1 |
| 20260506165532 | 59 | 252 | 7.0 | 15.0 | 0.00 | 0.00 | 0.00 | 80 | 1014.0 |
| 20260506165030 | 60 | 219 | 6.0 | 16.0 | 0.00 | 0.00 | 0.00 | 79 | 1014.2 |
| 20260506164530 | 60 | 26 | 6.0 | 15.0 | 0.00 | 0.00 | 0.00 | 78 | 1014.3 |
| 20260506164030 | 60 | 290 | 6.0 | 15.0 | 0.00 | 0.00 | 0.00 | 78 | 1014.2 |
| 20260506163530 | 60 | 194 | 2.0 | 13.0 | 0.00 | 0.00 | 0.00 | 79 | 1014.2 |
| 20260506163029 | 61 | 241 | 3.0 | 11.0 | 0.00 | 0.00 | 0.00 | 79 | 1014.4 |
| 20260506162528 | 60 | 162 | 2.0 | 12.0 | 0.00 | 0.00 | 0.00 | 81 | 1014.6 |
| 20260506162027 | 59 | 208 | 6.0 | 12.0 | 0.00 | 0.00 | 0.00 | 80 | 1014.7 |
| 20260506161528 | 60 | 198 | 5.0 | 13.0 | 0.00 | 0.00 | 0.00 | 78 | 1014.7 |
| 20260506161030 | 61 | 163 | 6.0 | 13.0 | 0.00 | 0.00 | 0.00 | 79 | 1014.8 |
| 20260506160527 | 61 | 223 | 6.0 | 19.0 | 0.00 | 0.00 | 0.00 | 78 | 1014.8 |
| 20260506160029 | 60 | 246 | 5.0 | 17.0 | 0.00 | 0.00 | 0.00 | 79 | 1014.9 |
| 20260506155527 | 60 | 184 | 6.0 | 17.0 | 0.00 | 0.00 | 0.00 | 78 | 1014.9 |
| 20260506155026 | 60 | 246 | 4.0 | 14.0 | 0.00 | 0.00 | 0.00 | 79 | 1014.9 |
| 20260506154527 | 60 | 200 | 2.0 | 14.0 | 0.00 | 0.00 | 0.00 | 79 | 1014.9 |
| 20260506154026 | 60 | 187 | 6.0 | 25.0 | 0.00 | 0.00 | 0.00 | 78 | 1015.0 |
| 20260506153525 | 61 | 143 | 9.0 | 25.0 | 0.00 | 0.00 | 0.00 | 77 | 1015.0 |
| 20260506153127 | 61 | 196 | 7.0 | 15.0 | 0.00 | 0.00 | 0.00 | 77 | 1014.9 |
| 20260506152525 | 61 | 215 | 7.0 | 19.0 | 0.00 | 0.00 | 0.00 | 78 | 1015.0 |
| 20260506152026 | 61 | 192 | 6.0 | 19.0 | 0.00 | 0.00 | 0.00 | 77 | 1015.0 |
| 20260506151525 | 62 | 232 | 6.0 | 14.0 | 0.00 | 0.00 | 0.00 | 76 | 1014.9 |
| 20260506151025 | 62 | 185 | 4.0 | 15.0 | 0.00 | 0.00 | 0.00 | 77 | 1015.0 |
| 20260506150527 | 62 | 298 | 6.0 | 15.0 | 0.00 | 0.00 | 0.00 | 76 | 1014.9 |
| 20260506150025 | 62 | 244 | 4.0 | 14.0 | 0.00 | 0.00 | 0.00 | 77 | 1015.0 |
| 20260506145525 | 62 | 241 | 4.0 | 12.0 | 0.00 | 0.00 | 0.00 | 76 | 1015.1 |
| 20260506145024 | 62 | 209 | 6.0 | 14.0 | 0.00 | 0.00 | 0.00 | 76 | 1015.0 |
| 20260506144527 | 61 | 176 | 7.0 | 14.0 | 0.00 | 0.00 | 0.00 | 77 | 1015.2 |
| 20260506144023 | 61 | 218 | 5.0 | 12.0 | 0.00 | 0.00 | 0.00 | 79 | 1015.3 |
| 20260506143522 | 61 | 212 | 6.0 | 12.0 | 0.00 | 0.00 | 0.00 | 78 | 1015.3 |
| 20260506143031 | 61 | 242 | 4.0 | 16.0 | 0.00 | 0.00 | 0.00 | 80 | 1015.2 |
| 20260506142524 | 60 | 226 | 6.0 | 16.0 | 0.00 | 0.00 | 0.00 | 79 | 1015.1 |
| 20260506142023 | 60 | 206 | 6.0 | 15.0 | 0.00 | 0.00 | 0.00 | 79 | 1015.0 |
| 20260506141520 | 60 | 220 | 7.0 | 15.0 | 0.00 | 0.00 | 0.00 | 79 | 1015.0 |
| 20260506141021 | 60 | 188 | 5.0 | 15.0 | 0.00 | 0.00 | 0.00 | 80 | 1014.9 |
| 20260506140521 | 60 | 298 | 5.0 | 13.0 | 0.00 | 0.00 | 0.00 | 79 | 1014.9 |
| 20260506140021 | 60 | 257 | 2.0 | 15.0 | 0.00 | 0.00 | 0.00 | 80 | 1015.0 |
| 20260506135520 | 61 | 239 | 5.0 | 16.0 | 0.00 | 0.00 | 0.00 | 78 | 1014.8 |
| 20260506135020 | 61 | 273 | 7.0 | 18.0 | 0.00 | 0.00 | 0.00 | 78 | 1014.8 |
| 20260506134520 | 61 | 180 | 8.0 | 18.0 | 0.00 | 0.00 | 0.00 | 78 | 1014.9 |
| 20260506134020 | 61 | 322 | 4.0 | 12.0 | 0.00 | 0.00 | 0.00 | 78 | 1014.7 |
| 20260506133519 | 60 | 138 | 4.0 | 12.0 | 0.00 | 0.00 | 0.00 | 81 | 1014.8 |
| 20260506133017 | 60 | 316 | 4.0 | 12.0 | 0.00 | 0.00 | 0.00 | 80 | 1014.8 |
| 20260506132518 | 60 | 231 | 4.0 | 12.0 | 0.00 | 0.00 | 0.00 | 80 | 1015.2 |
| 20260506132017 | 60 | 211 | 5.0 | 10.0 | 0.00 | 0.00 | 0.00 | 80 | 1015.2 |
| 20260506131518 | 60 | 220 | 5.0 | 12.0 | 0.00 | 0.00 | 0.00 | 80 | 1015.3 |
| 20260506131018 | 60 | 209 | 5.0 | 12.0 | 0.00 | 0.00 | 0.00 | 80 | 1015.4 |
| 20260506130521 | 60 | 235 | 4.0 | 13.0 | 0.00 | 0.00 | 0.00 | 79 | 1015.3 |
| 20260506130020 | 60 | 287 | 4.0 | 14.0 | 0.00 | 0.00 | 0.00 | 81 | 1015.4 |
| 20260506125516 | 60 | 222 | 3.0 | 14.0 | 0.00 | 0.00 | 0.00 | 80 | 1015.3 |
| 20260506125018 | 60 | 167 | 2.0 | 15.0 | 0.00 | 0.00 | 0.00 | 81 | 1015.4 |
| 20260506124515 | 60 | 173 | 5.0 | 11.0 | 0.00 | 0.00 | 0.00 | 80 | 1015.4 |
| 20260506124015 | 60 | 163 | 3.0 | 12.0 | 0.00 | 0.00 | 0.00 | 80 | 1015.3 |
| 20260506123514 | 60 | 186 | 5.0 | 12.0 | 0.00 | 0.00 | 0.00 | 81 | 1015.3 |
| 20260506123016 | 60 | 221 | 5.0 | 12.0 | 0.00 | 0.00 | 0.00 | 81 | 1015.2 |
| 20260506122512 | 59 | 217 | 5.0 | 11.0 | 0.00 | 0.00 | 0.00 | 82 | 1015.2 |
| 20260506122011 | 59 | 154 | 6.0 | 12.0 | 0.00 | 0.00 | 0.00 | 82 | 1015.2 |
| 20260506121514 | 59 | 205 | 5.0 | 11.0 | 0.00 | 0.00 | 0.00 | 83 | 1015.2 |
| 20260506121010 | 58 | 200 | 5.0 | 13.0 | 0.00 | 0.00 | 0.00 | 83 | 1015.2 |
| 20260506120509 | 58 | 221 | 5.0 | 14.0 | 0.00 | 0.00 | 0.00 | 83 | 1015.2 |
| 20260506120009 | 58 | 137 | 4.0 | 12.0 | 0.00 | 0.00 | 0.00 | 84 | 1015.3 |
| 20260506115509 | 58 | 138 | 4.0 | 12.0 | 0.00 | 0.00 | 0.00 | 84 | 1015.2 |
| 20260506115009 | 58 | 213 | 5.0 | 11.0 | 0.00 | 0.00 | 0.00 | 83 | 1015.3 |
| 20260506114510 | 58 | 194 | 4.0 | 9.0 | 0.00 | 0.00 | 0.00 | 84 | 1015.3 |
| 20260506114007 | 58 | 310 | 3.0 | 9.0 | 0.00 | 0.00 | 0.00 | 85 | 1015.2 |
| 20260506113506 | 58 | 344 | 2.0 | 8.0 | 0.00 | 0.00 | 0.00 | 85 | 1015.4 |
| 20260506113008 | 57 | 166 | 3.0 | 14.0 | 0.00 | 0.00 | 0.00 | 86 | 1015.2 |
| 20260506112506 | 57 | 139 | 3.0 | 13.0 | 0.00 | 0.00 | 0.00 | 86 | 1015.4 |
| 20260506112006 | 57 | 265 | 2.0 | 10.0 | 0.00 | 0.00 | 0.00 | 87 | 1015.4 |
| 20260506111504 | 56 | 223 | 1.0 | 5.0 | 0.00 | 0.00 | 0.00 | 89 | 1015.4 |
| 20260506111003 | 56 | 296 | 2.0 | 8.0 | 0.00 | 0.00 | 0.00 | 89 | 1015.4 |
| 20260506110503 | 56 | 348 | 1.0 | 8.0 | 0.00 | 0.00 | 0.00 | 89 | 1015.4 |
| 20260506110003 | 55 | 242 | 1.0 | 9.0 | 0.00 | 0.00 | 0.00 | 89 | 1015.3 |
| 20260506105503 | 55 | 234 | 3.0 | 14.0 | 0.00 | 0.00 | 0.00 | 89 | 1015.1 |
| 20260506105002 | 55 | 167 | 4.0 | 14.0 | 0.00 | 0.00 | 0.00 | 89 | 1015.2 |
| 20260506104501 | 55 | 159 | 3.0 | 14.0 | 0.00 | 0.00 | 0.00 | 89 | 1015.3 |
| 20260506104003 | 55 | 183 | 4.0 | 14.0 | 0.00 | 0.00 | 0.00 | 89 | 1015.3 |
| 20260506103502 | 55 | 108 | 5.0 | 14.0 | 0.00 | 0.00 | 0.00 | 89 | 1015.2 |
| 20260506103101 | 55 | 177 | 5.0 | 10.0 | 0.00 | 0.00 | 0.00 | 89 | 1015.2 |
| 20260506102501 | 55 | 170 | 4.0 | 14.0 | 0.00 | 0.00 | 0.00 | 89 | 1015.1 |
| 20260506102101 | 55 | 228 | 6.0 | 14.0 | 0.00 | 0.00 | 0.00 | 90 | 1015.1 |
| 20260506101559 | 55 | 249 | 4.0 | 14.0 | 0.00 | 0.00 | 0.00 | 90 | 1015.1 |
| 20260506101059 | 55 | 163 | 5.0 | 12.0 | 0.00 | 0.00 | 0.00 | 90 | 1015.0 |
| 20260506100558 | 55 | 227 | 4.0 | 12.0 | 0.00 | 0.00 | 0.00 | 90 | 1015.0 |
| 20260506100058 | 55 | 196 | 4.0 | 17.0 | 0.00 | 0.00 | 0.00 | 90 | 1015.0 |
| 20260506095558 | 55 | 192 | 3.0 | 17.0 | 0.00 | 0.00 | 0.00 | 90 | 1015.0 |
| 20260506095056 | 55 | 232 | 4.0 | 13.0 | 0.00 | 0.00 | 0.00 | 90 | 1015.1 |
| 20260506094555 | 55 | 196 | 5.0 | 11.0 | 0.00 | 0.00 | 0.00 | 89 | 1015.1 |
| 20260506094054 | 55 | 217 | 4.0 | 13.0 | 0.00 | 0.00 | 0.00 | 89 | 1015.0 |
| 20260506093554 | 55 | 253 | 5.0 | 14.0 | 0.00 | 0.00 | 0.00 | 89 | 1014.9 |
| 20260506093055 | 56 | 142 | 5.0 | 17.0 | 0.00 | 0.00 | 0.00 | 89 | 1015.0 |
| 20260506092553 | 56 | 228 | 5.0 | 17.0 | 0.00 | 0.00 | 0.00 | 89 | 1015.0 |
| 20260506092053 | 56 | 219 | 5.0 | 14.0 | 0.00 | 0.00 | 0.00 | 89 | 1015.0 |
| 20260506091552 | 56 | 207 | 4.0 | 14.0 | 0.00 | 0.00 | 0.00 | 89 | 1015.1 |
| 20260506091050 | 56 | 159 | 8.0 | 16.0 | 0.00 | 0.00 | 0.00 | 89 | 1015.1 |
| 20260506090550 | 56 | 217 | 4.0 | 10.0 | 0.00 | 0.00 | 0.00 | 89 | 1015.1 |
| 20260506090050 | 56 | 176 | 3.0 | 9.0 | 0.00 | 0.00 | 0.00 | 89 | 1015.2 |
| 20260506085550 | 56 | 245 | 3.0 | 16.0 | 0.00 | 0.00 | 0.00 | 89 | 1015.3 |
| 20260506085049 | 56 | 282 | 6.0 | 16.0 | 0.00 | 0.00 | 0.00 | 88 | 1015.2 |
| 20260506084549 | 56 | 221 | 5.0 | 14.0 | 0.00 | 0.00 | 0.00 | 89 | 1015.2 |
| 20260506084048 | 56 | 196 | 4.0 | 18.0 | 0.00 | 0.00 | 0.00 | 89 | 1015.2 |
| 20260506083548 | 56 | 258 | 4.0 | 18.0 | 0.00 | 0.00 | 0.00 | 89 | 1015.2 |
| 20260506083048 | 56 | 178 | 3.0 | 12.0 | 0.00 | 0.00 | 0.00 | 88 | 1015.2 |
| 20260506082546 | 56 | 267 | 5.0 | 13.0 | 0.00 | 0.00 | 0.00 | 88 | 1015.3 |
| 20260506082046 | 56 | 197 | 2.0 | 10.0 | 0.00 | 0.00 | 0.00 | 88 | 1015.4 |
| 20260506081550 | 56 | 240 | 4.0 | 10.0 | 0.00 | 0.00 | 0.00 | 89 | 1015.4 |
| 20260506081045 | 56 | 269 | 3.0 | 10.0 | 0.00 | 0.00 | 0.00 | 89 | 1015.5 |
| 20260506080547 | 56 | 179 | 3.0 | 10.0 | 0.00 | 0.00 | 0.00 | 89 | 1015.5 |
| 20260506073041 | 56 | 161 | 3.0 | 12.0 | 0.00 | 0.00 | 0.00 | 88 | 1015.5 |
| 20260506072541 | 56 | 180 | 3.0 | 12.0 | 0.00 | 0.00 | 0.00 | 87 | 1015.5 |
| 20260506072042 | 56 | 211 | 3.0 | 12.0 | 0.00 | 0.00 | 0.00 | 88 | 1015.6 |
| 20260506071549 | 56 | 257 | 4.0 | 12.0 | 0.00 | 0.00 | 0.00 | 88 | 1015.5 |
| 20260506071041 | 56 | 168 | 3.0 | 8.0 | 0.00 | 0.00 | 0.00 | 88 | 1015.5 |
| 20260506070540 | 56 | 211 | 3.0 | 9.0 | 0.00 | 0.00 | 0.00 | 88 | 1015.4 |
| 20260506062039 | 56 | 187 | 3.0 | 6.0 | 0.00 | 0.00 | 0.00 | 87 | 1015.5 |
| 20260506061538 | 56 | 261 | 1.0 | 7.0 | 0.00 | 0.00 | 0.00 | 87 | 1015.4 |
| 20260506061037 | 57 | 221 | 4.0 | 9.0 | 0.00 | 0.00 | 0.00 | 87 | 1015.5 |
| 20260506060537 | 57 | 175 | 2.0 | 10.0 | 0.00 | 0.00 | 0.00 | 87 | 1015.6 |
| 20260506051027 | 56 | 211 | 2.0 | 7.0 | 0.00 | 0.00 | 0.00 | 87 | 1016.1 |
| 20260506050527 | 56 | 163 | 2.0 | 9.0 | 0.00 | 0.00 | 0.00 | 87 | 1016.1 |
| 20260506045026 | 56 | 259 | 2.0 | 10.0 | 0.00 | 0.00 | 0.00 | 87 | 1016.3 |
| 20260506044530 | 56 | 197 | 3.0 | 10.0 | 0.00 | 0.00 | 0.00 | 87 | 1016.3 |
| 20260506044023 | 56 | 228 | 3.0 | 10.0 | 0.00 | 0.00 | 0.00 | 86 | 1016.3 |
| 20260506043525 | 55 | 218 | 2.0 | 7.0 | 0.00 | 0.00 | 0.00 | 86 | 1016.3 |
| 20260506043023 | 55 | 210 | 3.0 | 7.0 | 0.00 | 0.00 | 0.00 | 86 | 1016.3 |
| 20260506042521 | 56 | 152 | 2.0 | 9.0 | 0.00 | 0.00 | 0.00 | 86 | 1016.3 |
| 20260506042021 | 55 | 201 | 3.0 | 9.0 | 0.00 | 0.00 | 0.00 | 85 | 1016.3 |
| 20260506041521 | 55 | 165 | 4.0 | 9.0 | 0.00 | 0.00 | 0.00 | 85 | 1016.1 |
| 20260506041019 | 56 | 171 | 1.0 | 7.0 | 0.00 | 0.00 | 0.00 | 85 | 1016.3 |
| 20260506040518 | 56 | 205 | 1.0 | 7.0 | 0.00 | 0.00 | 0.00 | 84 | 1016.3 |
| 20260506040018 | 56 | 261 | 1.0 | 6.0 | 0.00 | 0.00 | 0.00 | 84 | 1016.3 |
| 20260506035517 | 56 | 193 | 2.0 | 6.0 | 0.00 | 0.00 | 0.00 | 84 | 1016.3 |
| 20260506035019 | 56 | 189 | 1.0 | 6.0 | 0.00 | 0.00 | 0.00 | 83 | 1016.1 |
| 20260506034517 | 56 | 178 | 2.0 | 6.0 | 0.00 | 0.00 | 0.00 | 82 | 1016.2 |
| 20260506034018 | 56 | 195 | 2.0 | 6.0 | 0.00 | 0.00 | 0.00 | 82 | 1016.2 |
| 20260506033516 | 56 | 177 | 1.0 | 7.0 | 0.00 | 0.00 | 0.00 | 82 | 1016.1 |
| 20260506033015 | 57 | 176 | 1.0 | 7.0 | 0.00 | 0.00 | 0.00 | 81 | 1016.2 |
| 20260506032516 | 57 | 159 | 1.0 | 8.0 | 0.00 | 0.00 | 0.00 | 81 | 1016.2 |
| 20260506032015 | 57 | 169 | 0.0 | 8.0 | 0.00 | 0.00 | 0.00 | 80 | 1016.2 |
| 20260506031517 | 57 | 99 | 0.0 | 7.0 | 0.00 | 0.00 | 0.00 | 80 | 1016.0 |
| 20260506031013 | 57 | 233 | 2.0 | 10.0 | 0.00 | 0.00 | 0.00 | 80 | 1016.0 |
| 20260506030514 | 57 | 165 | 3.0 | 10.0 | 0.00 | 0.00 | 0.00 | 80 | 1016.0 |
| 20260506030013 | 58 | 206 | 2.0 | 10.0 | 0.00 | 0.00 | 0.00 | 79 | 1016.1 |
| 20260506025516 | 58 | 227 | 2.0 | 18.0 | 0.00 | 0.00 | 0.00 | 79 | 1015.9 |
| 20260506025012 | 58 | 242 | 3.0 | 18.0 | 0.00 | 0.00 | 0.00 | 79 | 1015.7 |
| 20260506024512 | 58 | 153 | 4.0 | 14.0 | 0.00 | 0.00 | 0.00 | 79 | 1015.6 |
| 20260506024011 | 58 | 173 | 6.0 | 16.0 | 0.00 | 0.00 | 0.00 | 78 | 1015.7 |
| 20260506023512 | 58 | 215 | 3.0 | 19.0 | 0.00 | 0.00 | 0.00 | 78 | 1015.6 |
| 20260506023011 | 58 | 190 | 5.0 | 19.0 | 0.00 | 0.00 | 0.00 | 78 | 1015.7 |
| 20260506022512 | 58 | 266 | 5.0 | 10.0 | 0.00 | 0.00 | 0.00 | 78 | 1015.7 |
| 20260506022011 | 58 | 172 | 4.0 | 10.0 | 0.00 | 0.00 | 0.00 | 78 | 1015.6 |
| 20260506021511 | 58 | 202 | 3.0 | 14.0 | 0.00 | 0.00 | 0.00 | 78 | 1015.7 |
| 20260506021011 | 57 | 269 | 5.0 | 14.0 | 0.00 | 0.00 | 0.00 | 77 | 1015.6 |
| 20260506020510 | 58 | 167 | 2.0 | 10.0 | 0.00 | 0.00 | 0.00 | 77 | 1015.7 |
| 20260506020110 | 58 | 198 | 3.0 | 13.0 | 0.00 | 0.00 | 0.00 | 77 | 1015.7 |
| 20260506015513 | 58 | 138 | 2.0 | 13.0 | 0.00 | 0.00 | 0.00 | 76 | 1015.6 |
| 20260506015009 | 58 | 226 | 3.0 | 13.0 | 0.00 | 0.00 | 0.00 | 76 | 1015.7 |
| 20260506014511 | 58 | 212 | 5.0 | 12.0 | 0.00 | 0.00 | 0.00 | 76 | 1015.6 |
| 20260506014009 | 58 | 213 | 3.0 | 13.0 | 0.00 | 0.00 | 0.00 | 76 | 1015.5 |
| 20260506013508 | 58 | 195 | 5.0 | 13.0 | 0.00 | 0.00 | 0.00 | 76 | 1015.4 |
| 20260506013009 | 58 | 250 | 4.0 | 18.0 | 0.00 | 0.00 | 0.00 | 76 | 1015.3 |
| 20260506012508 | 58 | 208 | 4.0 | 18.0 | 0.00 | 0.00 | 0.00 | 76 | 1015.3 |
| 20260506012013 | 58 | 196 | 7.0 | 18.0 | 0.00 | 0.00 | 0.00 | 76 | 1015.3 |
| 20260506011508 | 58 | 194 | 5.0 | 18.0 | 0.00 | 0.00 | 0.00 | 76 | 1015.3 |
| 20260506011008 | 58 | 214 | 7.0 | 15.0 | 0.00 | 0.00 | 0.00 | 76 | 1015.3 |
| 20260506010508 | 58 | 195 | 5.0 | 20.0 | 0.00 | 0.00 | 0.00 | 76 | 1015.4 |
| 20260506010108 | 58 | 209 | 4.0 | 20.0 | 0.00 | 0.00 | 0.00 | 77 | 1015.1 |
| 20260506005508 | 58 | 166 | 5.0 | 20.0 | 0.00 | 0.00 | 0.00 | 77 | 1015.2 |
| 20260506005007 | 57 | 111 | 3.0 | 13.0 | 0.00 | 0.00 | 0.00 | 77 | 1015.2 |
| 20260506004507 | 57 | 143 | 5.0 | 13.0 | 0.00 | 0.00 | 0.00 | 78 | 1015.1 |
| 20260506004007 | 57 | 172 | 5.0 | 13.0 | 0.00 | 0.00 | 0.00 | 78 | 1015.0 |
| 20260506003507 | 57 | 173 | 2.0 | 12.0 | 0.00 | 0.00 | 0.00 | 78 | 1014.9 |
| 20260506003008 | 57 | 171 | 3.0 | 10.0 | 0.00 | 0.00 | 0.00 | 79 | 1014.9 |
| 20260506002506 | 56 | 165 | 3.0 | 7.0 | 0.00 | 0.00 | 0.00 | 79 | 1014.9 |
| 20260506002007 | 56 | 172 | 2.0 | 6.0 | 0.00 | 0.00 | 0.00 | 80 | 1014.8 |
| 20260506001507 | 56 | 275 | 1.0 | 4.0 | 0.00 | 0.00 | 0.00 | 80 | 1014.8 |
| 20260506001007 | 56 | 186 | 1.0 | 7.0 | 0.00 | 0.00 | 0.00 | 79 | 1014.7 |
| 20260506000507 | 56 | 266 | 3.0 | 8.0 | 0.00 | 0.00 | 0.00 | 79 | 1014.5 |
| 20260506000006 | 57 | 244 | 1.0 | 8.0 | 0.00 | 0.00 | 0.00 | 79 | 1014.4 |
| 20260505235506 | 57 | 221 | 1.0 | 9.0 | 0.00 | 0.00 | 0.00 | 79 | 1014.3 |
| 20260505235006 | 57 | 217 | 2.0 | 9.0 | 0.00 | 0.00 | 0.00 | 78 | 1014.1 |
| 20260505234506 | 57 | 217 | 1.0 | 8.0 | 0.00 | 0.00 | 0.00 | 78 | 1014.1 |
| 20260505234005 | 58 | 154 | 2.0 | 8.0 | 0.00 | 0.00 | 0.00 | 78 | 1014.0 |
| 20260505233505 | 58 | 213 | 2.0 | 8.0 | 0.00 | 0.00 | 0.00 | 78 | 1014.2 |
| 20260505233008 | 58 | 165 | 1.0 | 6.0 | 0.00 | 0.00 | 0.00 | 78 | 1014.4 |
| 20260505232505 | 58 | 196 | 1.0 | 8.0 | 0.00 | 0.00 | 0.00 | 78 | 1014.5 |
| 20260505232005 | 58 | 191 | 3.0 | 8.0 | 0.00 | 0.00 | 0.00 | 78 | 1014.5 |
| 20260505231509 | 58 | 155 | 3.0 | 7.0 | 0.00 | 0.00 | 0.00 | 78 | 1014.4 |
| 20260505231005 | 58 | 191 | 2.0 | 10.0 | 0.00 | 0.00 | 0.00 | 78 | 1014.4 |
| 20260505230504 | 58 | 247 | 3.0 | 10.0 | 0.00 | 0.00 | 0.00 | 77 | 1014.4 |
| 20260505230104 | 58 | 210 | 4.0 | 9.0 | 0.00 | 0.00 | 0.00 | 77 | 1014.4 |
| 20260505225606 | 58 | 222 | 2.0 | 12.0 | 0.00 | 0.00 | 0.00 | 77 | 1014.2 |
| 20260505225003 | 58 | 136 | 3.0 | 12.0 | 0.00 | 0.00 | 0.00 | 76 | 1014.3 |
| 20260505224503 | 58 | 174 | 6.0 | 12.0 | 0.00 | 0.00 | 0.00 | 77 | 1014.3 |
| 20260505224002 | 58 | 205 | 4.0 | 13.0 | 0.00 | 0.00 | 0.00 | 77 | 1014.3 |
| 20260505223503 | 58 | 182 | 4.0 | 13.0 | 0.00 | 0.00 | 0.00 | 77 | 1014.2 |
| 20260505223003 | 57 | 188 | 4.0 | 12.0 | 0.00 | 0.00 | 0.00 | 78 | 1014.2 |
| 20260505222502 | 57 | 232 | 4.0 | 11.0 | 0.00 | 0.00 | 0.00 | 78 | 1014.1 |
| 20260505222003 | 57 | 248 | 4.0 | 11.0 | 0.00 | 0.00 | 0.00 | 78 | 1014.0 |
| 20260505221503 | 57 | 141 | 3.0 | 18.0 | 0.00 | 0.00 | 0.00 | 78 | 1014.0 |
| 20260505221002 | 57 | 192 | 4.0 | 18.0 | 0.00 | 0.00 | 0.00 | 77 | 1014.0 |
| 20260505220502 | 57 | 180 | 6.0 | 18.0 | 0.00 | 0.00 | 0.00 | 77 | 1014.0 |
| 20260505220007 | 58 | 146 | 6.0 | 15.0 | 0.00 | 0.00 | 0.00 | 77 | 1014.1 |
| 20260505215502 | 58 | 202 | 7.0 | 19.0 | 0.00 | 0.00 | 0.00 | 76 | 1014.2 |
| 20260505215003 | 58 | 167 | 6.0 | 19.0 | 0.00 | 0.00 | 0.00 | 76 | 1014.2 |
| 20260505214619 | 58 | 152 | 7.0 | 15.0 | 0.00 | 0.00 | 0.00 | 76 | 1014.2 |
| 20260505214101 | 59 | 190 | 5.0 | 15.0 | 0.00 | 0.00 | 0.00 | 75 | 1014.1 |
| 20260505213500 | 59 | 228 | 7.0 | 19.0 | 0.00 | 0.00 | 0.00 | 75 | 1014.0 |
| 20260505213000 | 59 | 214 | 5.0 | 19.0 | 0.00 | 0.00 | 0.00 | 75 | 1013.9 |
| 20260505212603 | 59 | 242 | 5.0 | 17.0 | 0.00 | 0.00 | 0.00 | 75 | 1014.0 |
| 20260505212059 | 0 | 0.0 | 0.0 | 0.00 | 0.00 | 0.00 | 1013.9 | ||
| 20260505211658 | 0 | 0.0 | 0.0 | 0.00 | 0.00 | 0.00 | 1013.9 | ||
| 20260505211056 | 60 | 209 | 6.0 | 18.0 | 0.00 | 0.00 | 0.00 | 73 | 1013.8 |
| 20260505210557 | 60 | 209 | 6.0 | 18.0 | 0.00 | 0.00 | 0.00 | 73 | 1013.8 |
| 20260505210057 | 61 | 204 | 6.0 | 17.0 | 0.00 | 0.00 | 0.00 | 72 | 1013.9 |
| 20260505205557 | 61 | 205 | 5.0 | 17.0 | 0.00 | 0.00 | 0.00 | 72 | 1013.8 |
| 20260505205056 | 61 | 206 | 3.0 | 18.0 | 0.00 | 0.00 | 0.00 | 72 | 1013.7 |
| 20260505204555 | 61 | 290 | 7.0 | 14.0 | 0.00 | 0.00 | 0.00 | 72 | 1013.7 |
| 20260505204056 | 62 | 167 | 5.0 | 15.0 | 0.00 | 0.00 | 0.00 | 70 | 1013.6 |
| 20260505203555 | 62 | 140 | 5.0 | 15.0 | 0.00 | 0.00 | 0.00 | 70 | 1013.5 |
| 20260505203055 | 62 | 154 | 6.0 | 13.0 | 0.00 | 0.00 | 0.00 | 70 | 1013.6 |
| 20260505202552 | 62 | 117 | 4.0 | 13.0 | 0.00 | 0.00 | 0.00 | 70 | 1013.8 |
| 20260505202057 | 62 | 188 | 2.0 | 17.0 | 0.00 | 0.00 | 0.00 | 72 | 1013.7 |
| 20260505201606 | 62 | 196 | 7.0 | 18.0 | 0.00 | 0.00 | 0.00 | 71 | 1013.6 |
| 20260505201053 | 62 | 182 | 5.0 | 11.0 | 0.00 | 0.00 | 0.00 | 72 | 1013.7 |
| 20260505200553 | 61 | 50 | 4.0 | 12.0 | 0.00 | 0.00 | 0.00 | 72 | 1013.7 |
| 20260505195554 | 61 | 225 | 6.0 | 21.0 | 0.00 | 0.00 | 0.00 | 71 | 1013.8 |
| 20260505195051 | 62 | 182 | 4.0 | 20.0 | 0.00 | 0.00 | 0.00 | 72 | 1014.0 |
| 20260505194601 | 62 | 190 | 8.0 | 18.0 | 0.00 | 0.00 | 0.00 | 71 | 1013.9 |
| 20260505194050 | 62 | 206 | 6.0 | 15.0 | 0.00 | 0.00 | 0.00 | 70 | 1014.1 |
| 20260505193552 | 62 | 211 | 6.0 | 15.0 | 0.00 | 0.00 | 0.00 | 70 | 1014.0 |
| 20260505193049 | 62 | 184 | 5.0 | 15.0 | 0.00 | 0.00 | 0.00 | 71 | 1014.0 |